Regional Weather Roundup
Issued by NWS

Home | Current Version | Previous Version | Graphics & Text | Print | Product List | Glossary On
Versions: 1 2 3 4 5 6 7 8 9 10 11 12 13 14 15 16 17 18 19 20 21 22 23 24 25 26 27 28 29 30 31 32 33 34 35 36 37 38 39 40 41 42 43 44 45 46 47 48 49 50
000
ASUS43 KLOT 162303
RWRIL

ILLINOIS REGIONAL WEATHER ROUNDUP
NATIONAL WEATHER SERVICE CHICAGO/ROMEOVILLE IL
500 PM CST TUE JAN 16 2018

NOTE: "FAIR" INDICATES FEW OR NO CLOUDS BELOW 12,000 FEET WITH NO
SIGNIFICANT WEATHER AND/OR OBSTRUCTIONS TO VISIBILITY.

* THESE STATIONS ARE NOT UNDER NWS QUALITY CONTROL. THEY ALSO MAY NOT
  REPORT WEATHER SUCH AS PRECIPITATION OR FOG.

ILZ001-002-007-009-015-016-024-170000-
NORTHWEST ILLINOIS

CITY           SKY/WX    TMP DP  RH WIND       PRES   REMARKS
MOLINE         FAIR      14   7  73 W9        30.60R WCI   2
STERLING*      FAIR      14   9  80 W9        30.57R WCI   2
SAVANNA*       FAIR      17  10  73 W6        30.58R WCI   8
$$

ILZ003-004-008-010-011-017-018-170000-
NORTH CENTRAL ILLINOIS

CITY           SKY/WX    TMP DP  RH WIND       PRES   REMARKS
ROCKFORD       FAIR      15   8  73 W8        30.55R WCI   4
FREEPORT*      FAIR      16   9  74 W8        30.55S WCI   5
ROCHELLE*      FAIR      15   9  76 NW8       30.54R WCI   4
DE KALB*       FAIR      15   9  78 NW14      30.51R WCI   0
PERU*          FAIR      14   8  78 W10       30.56R WCI   1
$$

ILZ005-006-012>014-019>023-170000-
NORTHEAST ILLINOIS

CITY           SKY/WX    TMP DP  RH WIND       PRES   REMARKS
CHICAGO-OHARE  MOCLDY    22  10  60 NW14      30.48R WCI   9
CHICAGO-MIDWAY FAIR      23  11  60 NW9       30.48R WCI  13
AURORA         FAIR      13   8  81 W10       30.52R WCI   0
LANSING*       CLOUDY    23  15  71 NW3       30.48R
JOLIET*        FAIR      19  12  75 NW6       30.52R WCI  10
WAUKEGAN       FAIR      22   9  57 NW7       30.48R WCI  13
DUPAGE AIRPORT CLOUDY    18  10  71 NW10      30.49R WCI   6
KANKAKEE*      FAIR      13   8  79 W12       30.52R WCI  -1
WHEELING       FAIR      22  11  62 NW10      30.50R WCI  11
MORRIS*        FAIR      14   8  78 W10       30.52R WCI   1
ROMEOVILLE*    FAIR      17  11  80 NW12      30.51R WCI   4
NORTHERLY ISL    N/A     23  11  60 NW13        N/A  WCI  11
$$

LMZ740>746-170000-
SOUTHERN LAKE MICHIGAN

STATION/POSITION SKY/WX   TEMP    WIND        PRES    VSBY  WAVE
                          AIR SEA DIR/SP/G                  HT/PER
                          (F)     (DEG/KT/KT) (MB)    (MI)  (FT/S)
HARRISON CRIB              25     310/ 14/ 16   N/A
BURNHAM HARBOR             22     300/ 13/ 14   N/A
CALUMET HARBOR             23     280/  6/ 11 1031.2R
BURNS HARBOR               24     310/ 19/ 22 1031.2R
MICHIGAN CITY                     130/  8/  9   N/A
$$

ILZ025>027-034>036-040-047-049-050-058-095>099-170000-
WEST-CENTRAL ILLINOIS

CITY           SKY/WX    TMP DP  RH WIND       PRES   REMARKS
QUINCY         CLOUDY     9   1  70 W10       30.64S WCI  -5
GALESBURG*     FAIR       9   5  82 W8        30.62R WCI  -3
MACOMB*        FLURRIES  10   5  78 W13       30.66R WCI  -5
JACKSONVILLE*  CLOUDY     9   1  72 W9        30.65R WCI  -5
PITTSFIELD*    MOCLDY     9   2  75 W7        30.65S WCI  -3
$$

ILZ028>032-037-038-041>044-048-051>054-059>061-170000-
CENTRAL ILLINOIS

CITY           SKY/WX    TMP DP  RH WIND       PRES   REMARKS
PONTIAC        FAIR      13  10  87 W13       30.55S WCI  -1
BLOOMINGTON    FAIR       9   4  80 W10       30.55S WCI  -5
DECATUR        CLOUDY     8   5  87 W9        30.59S WCI  -5
PEORIA         FAIR      11   4  73 W12       30.61R WCI  -3
LACON*         FAIR      13   8  78 W7        30.58R WCI   3
LINCOLN*       LGT SNOW  12   6  79 W5        30.60S WCI   4
SPRINGFIELD    CLOUDY    11   3  70 W10       30.63R WCI  -3
TAYLORVILLE    LGT SNOW   8   3  79 W10       30.63R WCI  -6
$$

ILZ033-039-045-046-055>057-062-063-170000-
EAST-CENTRAL ILLINOIS

CITY           SKY/WX    TMP DP  RH WIND       PRES   REMARKS
CHAMPAIGN      CLOUDY     8   3  80 W18       30.56S WCI -11
DANVILLE*      FLURRIES   7   2  82 W12       30.52S WCI  -9
RANTOUL*       FLURRIES  10   6  82 W12       30.55S WCI  -5
MATTOON        LGT SNOW   6   1  80 W9        30.58S WCI  -8
PARIS*         LGT SNOW   7   3  85 W10       30.59R WCI  -8
$$

ILZ079-100>102-170000-
SOUTHWEST ILLINOIS

CITY           SKY/WX    TMP DP  RH WIND       PRES   REMARKS
ALTON          PTCLDY     9   1  72 W12       30.65F WCI  -6
BELLEVILLE     CLOUDY     9   0  65 NW6       30.66R WCI  -1
CAHOKIA*       CLOUDY    10   0  63 NW12      30.68S WCI  -5
SPARTA*        FLURRIES  11   3  70 NW6       30.67R WCI   2
$$

ILZ064>066-069>071-074>076-080>082-084>086-088>090-092>094-170000-
SOUTH-CENTRAL ILLINOIS

CITY           SKY/WX    TMP DP  RH WIND       PRES   REMARKS
CARBONDALE     CLOUDY    10   4  76 N10       30.67R WCI  -4
CAIRO*         CLOUDY    12   2  63 N5        30.67R WCI   4
EFFINGHAM*     LGT SNOW   8   3  78 W8        30.64S WCI  -4
MARION         FLURRIES   9   1  72 NW9       30.67R WCI  -5
MT. VERNON     FLURRIES   9   1  70 W3        30.66R
CENTRALIA*     LGT SNOW  10   4  77 W7        30.64S WCI  -1
SALEM*         FLURRIES  10   2  69 NW7       30.64S WCI  -1
METROPOLIS*    CLOUDY    12   0  59 NW5       30.67R WCI   4
$$

ILZ067-068-072-073-078-083-087-091-170000-
SOUTHEAST ILLINOIS

CITY           SKY/WX    TMP DP  RH WIND       PRES   REMARKS
LAWRENCEVILLE  CLOUDY     8   1  73 W7        30.64S WCI  -3
FLORA*         FLURRIES  10   2  69 W9        30.65S WCI  -3
FAIRFIELD*     LGT SNOW   8   2  76 CALM      30.65R
HARRISBURG*    CLOUDY     9   1  71 NW6       30.68R WCI  -1
ROBINSON*      LGT SNOW   6   0  75 W8        30.64R WCI  -6
CARMI*         LGT SNOW   8   1  75 NW9       30.66R WCI  -6
$$

ABBREVIATIONS USED IN REMARKS
   TC - TEMPERATURE IN CELSIUS
  WCI - WIND CHILL INDEX
   HX - HEAT INDEX
  VSB - VISIBILITY
$$





USA.gov is the U.S. government's official web portal to all federal, state and local government web resources and services.